User: anonymous   Login
Location: Unspecified
(0.0000°N, 0.0000°E)
Time: 12:16:11
(UTC+00:00)
Language:

IDEFIX/ARIANE 42P - Orbit

View from above orbital plane
View from above orbital plane
View from above satellite
View from above satellite

Ground track
Ground track

The orbit data is extracted from the following two-line orbital elements,

1 27422U 02021B   21015.63977445 -.00000005  00000-0  14643-4 0  9994
2 27422  98.3825 334.2383 0011693 329.3001  30.7497 14.29305623975475
Epoch (UTC): 15 January 2021 15:21:16
Eccentricity: 0.0011693
inclination: 98.3825°
perigee height: 785 km
apogee height: 802 km
right ascension of ascending node: 334.2383°
argument of perigee: 329.3001°
revolutions per day: 14.29305623
mean anomaly at epoch: 30.7497°
orbit number at epoch: 97547

The dashed part of the orbit path shows where the satellite is in the earth's shadow,  

DLR